Weather History for Managua, Nicaragua

Change the Weather History Date:

Monday, December 3, 2012

  Actual Average Record
Temperature  
Mean Temperature 81 °F -  
Max Temperature 91 °F 87 °F 93 °F (2000)
Min Temperature 71 °F 69 °F 62 °F (1999)
Cooling Degree Days 16    
Growing Degree Days 31 (Base 50)    
Moisture  
Dew Point 69 °F    
Average Humidity 69    
Maximum Humidity 89    
Minimum Humidity 43    
Precipitation  
Precipitation 0.00 in - - ()
Sea Level Pressure  
Sea Level Pressure 29.88 in    
Wind  
Wind Speed 4 mph ()    
Max Wind Speed 14 mph    
Max Gust Speed -    
Visibility 6.2 miles    
Events      
Averages and records for this station are not official NWS values.
T = Trace of Precipitation, MM = Missing Value Source: Averaged Metar Reports

Daily Weather History Graph

Daily Weather History Graph

Search for Another Location

Airport:

Trip Planner

Search our weather history database for the weather conditions in past years. The results will help you decide how hot, cold, wet, or windy it might be!

Date:

Astronomy

Dec. 03, 2012 Rise Set
Actual Time 5:51 AM CST 5:18 PM CST
Civil Twilight 5:28 AM CST 5:41 PM CST
Nautical Twilight 5:02 AM CST 6:07 PM CST
Astronomical Twilight 4:35 AM CST 6:33 PM CST
Moon 9:37 PM CST (12/3) 9:36 AM CST (12/3)
Length of Visible Light 12h 12m
Length of Day
11h 27m
Waning Gibbous, 78% of the Moon is Illuminated
Dec 3
Waning Gibbous
Dec 6
Last Quarter
Dec 13
New
Dec 19
First Quarter
Dec 28
Full

Hourly Weather History & Observations

Time (CST) Temp. Heat Index Dew Point Humidity Pressure Visibility Wind Dir Wind Speed Gust Speed Precip Events Conditions
12:00 AM 75.2 °F - 69.8 °F 83% 29.92 in 6.2 mi East 4.6 mph - N/A   Partly Cloudy
1:00 AM 75.2 °F - 71.6 °F 89% 29.92 in 6.2 mi Calm Calm - N/A   Partly Cloudy
2:00 AM 75.2 °F - 69.8 °F 83% 29.89 in 6.2 mi Calm Calm - N/A   Partly Cloudy
3:00 AM 73.4 °F - 68.0 °F 83% 29.89 in 6.2 mi Calm Calm - N/A   Partly Cloudy
4:00 AM 71.6 °F - 68.0 °F 88% 29.89 in 6.2 mi Calm Calm - N/A   Partly Cloudy
5:00 AM 71.6 °F - 68.0 °F 88% 29.89 in 6.2 mi Calm Calm - N/A   Partly Cloudy
6:00 AM 71.6 °F - 68.0 °F 88% 29.89 in 6.2 mi SSE 4.6 mph - N/A   Partly Cloudy
7:00 AM 75.2 °F - 68.0 °F 78% 29.92 in 6.2 mi SSE 4.6 mph - N/A   Partly Cloudy
8:00 AM 77.0 °F - 69.8 °F 78% 29.95 in 6.2 mi SSE 6.9 mph - N/A   Partly Cloudy
9:00 AM 82.4 °F 85.4 °F 68.0 °F 62% 29.92 in 6.2 mi East 4.6 mph - N/A   Partly Cloudy
10:00 AM 86.0 °F 89.4 °F 68.0 °F 55% 29.92 in 6.2 mi ENE 6.9 mph - N/A   Partly Cloudy
11:00 AM 87.8 °F 91.4 °F 68.0 °F 52% 29.89 in 6.2 mi East 9.2 mph - N/A   Partly Cloudy
12:00 PM 89.6 °F 93.4 °F 68.0 °F 49% 29.89 in 6.2 mi ESE 11.5 mph - N/A   Scattered Clouds
1:00 PM 89.6 °F 93.4 °F 68.0 °F 49% 29.83 in 6.2 mi East 11.5 mph - N/A   Scattered Clouds
2:00 PM 91.4 °F 94.0 °F 66.2 °F 43% 29.83 in 6.2 mi East 13.8 mph - N/A   Partly Cloudy
3:00 PM 91.4 °F 94.0 °F 66.2 °F 43% 29.80 in 6.2 mi NE 9.2 mph - N/A   Partly Cloudy
4:00 PM 89.6 °F 94.7 °F 69.8 °F 52% 29.80 in 6.2 mi East 4.6 mph - N/A   Partly Cloudy
5:00 PM 87.8 °F 91.4 °F 68.0 °F 52% 29.80 in 6.2 mi East 6.9 mph - N/A   Partly Cloudy
6:00 PM 82.4 °F 86.3 °F 69.8 °F 66% 29.86 in 6.2 mi East 6.9 mph - N/A   Partly Cloudy
7:00 PM 80.6 °F 83.9 °F 69.8 °F 70% 29.86 in 6.2 mi East 4.6 mph - N/A   Partly Cloudy
8:00 PM 78.8 °F - 71.6 °F 78% 29.89 in 6.2 mi East 4.6 mph - N/A   Partly Cloudy
9:00 PM 78.8 °F - 69.8 °F 74% 29.92 in 6.2 mi East 6.9 mph - N/A   Partly Cloudy
10:00 PM 78.8 °F - 69.8 °F 74% 29.92 in 6.2 mi East 6.9 mph - N/A   Scattered Clouds
11:00 PM 77.0 °F - 69.8 °F 78% 29.92 in 6.2 mi Calm Calm - N/A   Partly Cloudy